Home > Weather > Mount Isa > Past weeks

Flag for Australia Past Weather in Mount Isa, Queensland, Australia — Yesterday and Last 2 Weeks

Now
82 °F

Sunny.


Feels Like: 85 °F
Forecast: 65 / 90 °F
Wind: 6 mph from Northwest

Location: Mount Isa Amo

Current Time: May 26, 2016 at 10:44:20 AM

Latest Report: May 26, 2016 at 10:00 AM


Visibility: 10 mi

Pressure: 30.04 "Hg

Humidity: 58%

Dew Point: 66 °F

Location of Mount IsaLocation

Past Weather in Mount Isa — Graph

°F

Mount Isa Temperature Yesterday

Maximum temperature yesterday: 90 °F (at 1:00 PM)
Minimum temperature yesterday: 59 °F (at 6:00 AM)
Average temperature yesterday: 75 °F

High & Low Weather Summary for the Past Weeks

 TemperatureHumidityPressure
High91 °F (May 17, 3:00 PM)94% (May 23, 5:01 PM)30.18 "Hg (May 23, 5:01 PM)
Low46 °F (May 14, 7:00 AM)11% (May 13, 2:30 PM)29.89 "Hg (May 25, 3:00 PM)
Average73 °F48%30.03 "Hg
* Reported May 11 9:00 AM — May 26 9:00 AM, Mount Isa, Weather by CustomWeather, © 2016

Note: Actual official high and low records may vary slightly from our data, if they occured in-between our weather recording intervals... More about our weather records

Advertising

Mount Isa Weather History for the Previous 24 Hours

Scroll right to see more
 ConditionsComfort  
Time TempWeatherWind HumidityBarometerVisibility
9:00 AM
Thu, May 26
77 °FSunny.No wind69%30.01 "Hg10 mi
8:30 AM73 °FSunny.No wind74%30.01 "Hg10 mi
8:00 AM68 °FSunny.No wind83%30.01 "Hg10 mi
7:30 AM63 °FSunny.No wind88%29.98 "HgN/A
7:00 AM63 °FSunny.No wind88%29.98 "HgN/A
6:30 AM63 °FSunny.No wind88%29.98 "HgN/A
6:00 AM63 °FClear.2 mph88%29.98 "HgN/A
5:00 AM63 °FClear.No wind88%29.95 "HgN/A
4:30 AM64 °FClear.No wind83%29.95 "HgN/A
4:00 AM64 °FClear.No wind83%29.95 "HgN/A
3:00 AM64 °FClear.No wind88%29.98 "HgN/A
2:00 AM64 °FClear.No wind88%29.98 "HgN/A
1:30 AM66 °FClear.No wind83%29.98 "HgN/A
1:00 AM66 °FClear.No wind78%29.98 "HgN/A
12:30 AM68 °FClear.No wind78%29.98 "HgN/A
12:00 AM68 °FClear.No wind78%29.98 "HgN/A
11:00 PM
Wed, May 25
70 °FClear.2 mph73%29.98 "HgN/A
10:00 PM70 °FPassing clouds.No wind73%29.98 "HgN/A
9:30 PM72 °FPassing clouds.No wind69%29.98 "HgN/A
9:00 PM72 °FPassing clouds.No wind69%29.98 "HgN/A
8:30 PM72 °FPassing clouds.No wind69%29.98 "HgN/A
8:00 PM73 °FClear.3 mph61%29.98 "HgN/A
7:30 PM73 °FClear.6 mph61%29.95 "HgN/A
7:00 PM77 °FClear.5 mph54%29.92 "HgN/A
6:30 PM81 °FClear.5 mph48%29.92 "HgN/A
6:00 PM82 °FClear.6 mph45%29.92 "HgN/A
5:30 PM84 °FClear.8 mph43%29.89 "HgN/A
5:00 PM86 °FSunny.8 mph40%29.89 "Hg10 mi
4:30 PM88 °FSunny.9 mph35%29.89 "Hg10 mi
4:00 PM86 °FSunny.9 mph38%29.89 "HgN/A
3:30 PM88 °FSunny.10 mph35%29.89 "Hg10 mi
3:00 PM88 °FSunny.8 mph35%29.89 "Hg10 mi
2:30 PM88 °FSunny.9 mph35%29.92 "Hg10 mi
2:00 PM86 °FSunny.9 mph35%29.92 "Hg10 mi
1:30 PM86 °FSunny.9 mph38%29.95 "Hg10 mi
1:00 PM90 °FSunny.12 mph33%29.95 "Hg10 mi
12:30 PM86 °FSunny.10 mph38%29.98 "Hg10 mi
12:00 PM84 °FSunny.7 mph37%29.98 "Hg10 mi
11:00 AM82 °FSunny.7 mph42%30.01 "Hg10 mi
10:30 AM82 °FSunny.8 mph40%30.01 "Hg10 mi
10:00 AM81 °FSunny.8 mph42%30.01 "Hg10 mi
Weather by CustomWeather, © 2016

See weather overviewHow to use our weather pages